| time (UTC) | temp F | wind direction | speed knots | gust knots | rain 1hr in | rain 24hr in | rain mn in | humidity % | barometer mb |
| 20260509002214 | 0 | 166 | 0.0 | 1.7 | 0.00 | 0.00 | 0.00 | 1011.8 | |
| 20260509001711 | 0 | 150 | 0.0 | 2.6 | 0.00 | 0.00 | 0.00 | 1011.8 | |
| 20260509001207 | 0 | 168 | 0.0 | 2.6 | 0.00 | 0.00 | 0.00 | 1011.8 | |
| 20260509000705 | 0 | 154 | 0.9 | 1.7 | 0.00 | 0.00 | 0.00 | 1011.8 | |
| 20260509000204 | 0 | 22 | 0.0 | 2.6 | 0.00 | 0.00 | 0.00 | 1011.8 | |
| 20260508235659 | 0 | 66 | 0.0 | 0.9 | 0.00 | 0.00 | 0.00 | 1011.8 | |
| 20260508235155 | 0 | 180 | 0.0 | 3.5 | 0.00 | 0.00 | 0.00 | 1011.8 | |
| 20260508234652 | 0 | 135 | 0.0 | 2.6 | 0.00 | 0.00 | 0.00 | 1011.8 | |
| 20260508234148 | 0 | 151 | 0.0 | 2.6 | 0.00 | 0.00 | 0.00 | 1011.8 | |
| 20260508233643 | 0 | 130 | 0.0 | 2.6 | 0.00 | 0.00 | 0.00 | 1011.9 | |
| 20260508233140 | 0 | 173 | 0.0 | 2.6 | 0.00 | 0.00 | 0.00 | 1011.7 | |
| 20260508232637 | 0 | 136 | 0.0 | 2.6 | 0.00 | 0.00 | 0.00 | 1011.8 | |
| 20260508232134 | 0 | 131 | 0.0 | 1.7 | 0.00 | 0.00 | 0.00 | ||
| 20260508231631 | 0 | 186 | 0.0 | 2.6 | 0.00 | 0.00 | 0.00 | ||
| 20260508231128 | 0 | 103 | 0.0 | 3.5 | 0.00 | 0.00 | 0.00 | ||
| 20260508230624 | 0 | 155 | 0.9 | 2.6 | 0.00 | 0.00 | 0.00 | ||
| 20260508230120 | 0 | 179 | 1.7 | 4.3 | 0.00 | 0.00 | 0.00 | ||
| 20260508225613 | 0 | 147 | 1.7 | 3.5 | 0.00 | 0.00 | 0.00 | ||
| 20260508225109 | 0 | 143 | 0.9 | 1.7 | 0.00 | 0.00 | 0.00 | ||
| 20260508224607 | 0 | 117 | 0.0 | 2.6 | 0.00 | 0.00 | 0.00 | ||
| 20260508224104 | 0 | 50 | 0.0 | 2.6 | 0.00 | 0.00 | 0.00 | ||
| 20260508223602 | 0 | 190 | 1.7 | 2.6 | 0.00 | 0.00 | 0.00 | ||
| 20260508223059 | 0 | 89 | 0.0 | 0.9 | 0.00 | 0.00 | 0.00 | ||
| 20260508222556 | 0 | 109 | 1.7 | 2.6 | 0.00 | 0.00 | 0.00 | ||
| 20260508222053 | 0 | 143 | 2.6 | 3.5 | 0.00 | 0.00 | 0.00 | 1012.3 | |
| 20260508221549 | 0 | 11 | 0.0 | 3.5 | 0.00 | 0.00 | 0.00 | 1012.3 | |
| 20260508221045 | 0 | 160 | 0.0 | 2.6 | 0.00 | 0.00 | 0.00 | 1012.3 | |
| 20260508220542 | 0 | 276 | 0.0 | 4.3 | 0.00 | 0.00 | 0.00 | 1012.3 | |
| 20260508220038 | 0 | 115 | 1.7 | 3.5 | 0.00 | 0.00 | 0.00 | 1012.3 | |
| 20260508215535 | 0 | 153 | 1.7 | 2.6 | 0.00 | 0.00 | 0.00 | 1012.3 | |
| 20260508215032 | 0 | 118 | 1.7 | 7.8 | 0.00 | 0.00 | 0.00 | 1012.3 | |
| 20260508214530 | 0 | 335 | 0.0 | 2.6 | 0.00 | 0.00 | 0.00 | 1012.3 | |
| 20260508214026 | 0 | 158 | 1.7 | 3.5 | 0.00 | 0.00 | 0.00 | 1012.3 | |
| 20260508213523 | 0 | 182 | 1.7 | 5.2 | 0.00 | 0.00 | 0.00 | 1012.3 | |
| 20260508213019 | 0 | 211 | 0.9 | 5.2 | 0.00 | 0.00 | 0.00 | 1012.3 | |
| 20260508212516 | 0 | 141 | 2.6 | 4.3 | 0.00 | 0.00 | 0.00 | ||
| 20260508212012 | 0 | 289 | 0.0 | 4.3 | 0.00 | 0.00 | 0.00 | ||
| 20260508211508 | 0 | 321 | 0.0 | 4.3 | 0.00 | 0.00 | 0.00 | ||
| 20260508211004 | 0 | 342 | 0.9 | 2.6 | 0.00 | 0.00 | 0.00 | ||
| 20260508210501 | 0 | 18 | 0.0 | 4.3 | 0.00 | 0.00 | 0.00 | ||
| 20260508205957 | 0 | 164 | 0.9 | 2.6 | 0.00 | 0.00 | 0.00 | ||
| 20260508205455 | 0 | 183 | 0.9 | 3.5 | 0.00 | 0.00 | 0.00 | ||
| 20260508204951 | 0 | 197 | 0.0 | 4.3 | 0.00 | 0.00 | 0.00 | ||
| 20260508204448 | 0 | 237 | 0.0 | 3.5 | 0.00 | 0.00 | 0.00 | ||
| 20260508203943 | 0 | 117 | 1.7 | 1.7 | 0.00 | 0.00 | 0.00 | ||
| 20260508203440 | 0 | 120 | 0.0 | 3.5 | 0.00 | 0.00 | 0.00 | ||
| 20260508202935 | 0 | 187 | 1.7 | 3.5 | 0.00 | 0.00 | 0.00 | 1014.2 | |
| 20260508202433 | 0 | 213 | 1.7 | 5.2 | 0.00 | 0.00 | 0.00 | 1014.2 | |
| 20260508201930 | 0 | 118 | 1.7 | 3.5 | 0.00 | 0.00 | 0.00 | 1014.2 | |
| 20260508201427 | 0 | 153 | 2.6 | 4.3 | 0.00 | 0.00 | 0.00 | 1014.2 | |
| 20260508200924 | 0 | 85 | 1.7 | 2.6 | 0.00 | 0.00 | 0.00 | 1014.2 | |
| 20260508200421 | 0 | 107 | 1.7 | 3.5 | 0.00 | 0.00 | 0.00 | 1014.2 | |
| 20260508195915 | 0 | 195 | 0.0 | 4.3 | 0.00 | 0.00 | 0.00 | 1014.2 | |
| 20260508195413 | 0 | 165 | 1.7 | 3.5 | 0.00 | 0.00 | 0.00 | 1014.2 | |
| 20260508194909 | 0 | 152 | 2.6 | 2.6 | 0.00 | 0.00 | 0.00 | 1014.2 | |
| 20260508194406 | 0 | 165 | 0.9 | 2.6 | 0.00 | 0.00 | 0.00 | 1014.2 | |
| 20260508193903 | 0 | 54 | 0.0 | 2.6 | 0.00 | 0.00 | 0.00 | 1014.2 | |
| 20260508193400 | 0 | 178 | 0.9 | 2.6 | 0.00 | 0.00 | 0.00 | 1014.3 | |
| 20260508192856 | 0 | 103 | 2.6 | 2.6 | 0.00 | 0.00 | 0.00 | 1014.3 | |
| 20260508192353 | 0 | 238 | 0.9 | 3.5 | 0.00 | 0.00 | 0.00 | 1014.3 | |
| 20260508191850 | 0 | 220 | 0.9 | 3.5 | 0.00 | 0.00 | 0.00 | 1014.3 | |
| 20260508191348 | 0 | 38 | 1.7 | 6.1 | 0.00 | 0.00 | 0.00 | 1014.6 | |
| 20260508190845 | 0 | 261 | 0.0 | 1.7 | 0.00 | 0.00 | 0.00 | 1014.6 | |
| 20260508190341 | 0 | 214 | 0.0 | 2.6 | 0.00 | 0.00 | 0.00 | 1014.6 | |
| 20260508185837 | 0 | 194 | 0.0 | 2.6 | 0.00 | 0.00 | 0.00 | 1014.6 | |
| 20260508185335 | 0 | 83 | 1.7 | 4.3 | 0.00 | 0.00 | 0.00 | 1014.7 | |
| 20260508184832 | 0 | 169 | 2.6 | 4.3 | 0.00 | 0.00 | 0.00 | 1014.7 | |
| 20260508184330 | 0 | 166 | 1.7 | 1.7 | 0.00 | 0.00 | 0.00 | 1014.8 | |
| 20260508183826 | 0 | 328 | 0.9 | 3.5 | 0.00 | 0.00 | 0.00 | 1014.8 | |
| 20260508183323 | 0 | 158 | 1.7 | 2.6 | 0.00 | 0.00 | 0.00 | 1015.2 | |
| 20260508182818 | 0 | 13 | 0.0 | 3.5 | 0.00 | 0.00 | 0.00 | 1015.2 | |
| 20260508182316 | 0 | 309 | 2.6 | 3.5 | 0.00 | 0.00 | 0.00 | 1015.2 | |
| 20260508181811 | 0 | 281 | 0.9 | 1.7 | 0.00 | 0.00 | 0.00 | 1015.2 | |
| 20260508181308 | 0 | 164 | 1.7 | 3.5 | 0.00 | 0.00 | 0.00 | 1015.2 | |
| 20260508180805 | 0 | 165 | 0.9 | 2.6 | 0.00 | 0.00 | 0.00 | 1015.2 | |
| 20260508180302 | 0 | 83 | 0.9 | 1.7 | 0.00 | 0.00 | 0.00 | 1015.2 | |
| 20260508175758 | 0 | 116 | 0.0 | 0.9 | 0.00 | 0.00 | 0.00 | 1015.7 | |
| 20260508175255 | 0 | 342 | 0.9 | 1.7 | 0.00 | 0.00 | 0.00 | 1015.7 | |
| 20260508174753 | 0 | 20 | 2.6 | 4.3 | 0.00 | 0.00 | 0.00 | 1015.7 | |
| 20260508174250 | 0 | 193 | 0.0 | 1.7 | 0.00 | 0.00 | 0.00 | 1015.7 | |
| 20260508173747 | 0 | 57 | 0.0 | 2.6 | 0.00 | 0.00 | 0.00 | 1015.7 | |
| 20260508173242 | 0 | 209 | 0.0 | 1.7 | 0.00 | 0.00 | 0.00 | 1015.7 | |
| 20260508172739 | 0 | 18 | 0.0 | 3.5 | 0.00 | 0.00 | 0.00 | 1015.7 | |
| 20260508172237 | 0 | 142 | 1.7 | 2.6 | 0.00 | 0.00 | 0.00 | 1015.7 | |
| 20260508171733 | 0 | 41 | 1.7 | 3.5 | 0.00 | 0.00 | 0.00 | 1015.8 | |
| 20260508171229 | 0 | 63 | 0.0 | 3.5 | 0.00 | 0.00 | 0.00 | 1015.8 | |
| 20260508170726 | 0 | 140 | 0.0 | 2.6 | 0.00 | 0.00 | 0.00 | 1015.7 | |
| 20260508170224 | 0 | 139 | 1.7 | 1.7 | 0.00 | 0.00 | 0.00 | 1016.3 | |
| 20260508165721 | 0 | 129 | 0.0 | 0.9 | 0.00 | 0.00 | 0.00 | 1016.3 | |
| 20260508165218 | 0 | 256 | 0.0 | 1.7 | 0.00 | 0.00 | 0.00 | 1016.4 | |
| 20260508164714 | 0 | 142 | 0.0 | 1.7 | 0.00 | 0.00 | 0.00 | 1016.4 | |
| 20260508164211 | 0 | 89 | 0.0 | 0.9 | 0.00 | 0.00 | 0.00 | 1016.3 | |
| 20260508163709 | 0 | 129 | 0.0 | 2.6 | 0.00 | 0.00 | 0.00 | 1016.6 | |
| 20260508163206 | 0 | 155 | 0.9 | 2.6 | 0.00 | 0.00 | 0.00 | 1016.4 | |
| 20260508162701 | 0 | 5 | 0.0 | 1.7 | 0.00 | 0.00 | 0.00 | 1016.4 | |
| 20260508162159 | 0 | 108 | 0.9 | 2.6 | 0.00 | 0.00 | 0.00 | 1016.5 | |
| 20260508161656 | 0 | 145 | 0.0 | 0.9 | 0.00 | 0.00 | 0.00 | 1016.7 | |
| 20260508161153 | 0 | 150 | 1.7 | 2.6 | 0.00 | 0.00 | 0.00 | 1016.7 | |
| 20260508160651 | 0 | 12 | 1.7 | 2.6 | 0.00 | 0.00 | 0.00 | 1016.5 | |
| 20260508160149 | 0 | 71 | 0.9 | 2.6 | 0.00 | 0.00 | 0.00 | 1016.7 | |
| 20260508155645 | 0 | 164 | 0.0 | 0.9 | 0.00 | 0.00 | 0.00 | 1016.8 | |
| 20260508155142 | 0 | 151 | 0.9 | 1.7 | 0.00 | 0.00 | 0.00 | 1017.1 | |
| 20260508154640 | 0 | 174 | 0.0 | 0.9 | 0.00 | 0.00 | 0.00 | 1017.0 | |
| 20260508154136 | 0 | 140 | 0.0 | 1.7 | 0.00 | 0.00 | 0.00 | 1017.0 | |
| 20260508153633 | 0 | 123 | 1.7 | 3.5 | 0.00 | 0.00 | 0.00 | 1016.8 | |
| 20260508153130 | 0 | 112 | 0.0 | 0.9 | 0.00 | 0.00 | 0.00 | 1016.8 | |
| 20260508152627 | 0 | 202 | 0.0 | 1.7 | 0.00 | 0.00 | 0.00 | 1016.8 | |
| 20260508152121 | 0 | 110 | 0.0 | 1.7 | 0.00 | 0.00 | 0.00 | 1016.8 | |
| 20260508151619 | 0 | 119 | 0.0 | 2.6 | 0.00 | 0.00 | 0.00 | 1016.8 | |
| 20260508151116 | 0 | 201 | 0.0 | 2.6 | 0.00 | 0.00 | 0.00 | 1016.8 | |
| 20260508150613 | 0 | 62 | 0.0 | 2.6 | 0.00 | 0.00 | 0.00 | 1016.8 | |
| 20260508150109 | 0 | 86 | 0.0 | 2.6 | 0.00 | 0.00 | 0.00 | 1017.0 | |
| 20260508145605 | 0 | 163 | 1.7 | 3.5 | 0.00 | 0.00 | 0.00 | 1017.0 | |
| 20260508145102 | 0 | 190 | 1.7 | 3.5 | 0.00 | 0.00 | 0.00 | 1017.0 | |
| 20260508144600 | 0 | 166 | 0.0 | 2.6 | 0.00 | 0.00 | 0.00 | 1016.9 | |
| 20260508144057 | 0 | 154 | 0.0 | 3.5 | 0.00 | 0.00 | 0.00 | 1016.9 | |
| 20260508143554 | 0 | 154 | 1.7 | 2.6 | 0.00 | 0.00 | 0.00 | 1016.9 | |
| 20260508143051 | 0 | 117 | 0.9 | 1.7 | 0.00 | 0.00 | 0.00 | 1016.9 | |
| 20260508142548 | 0 | 120 | 1.7 | 3.5 | 0.00 | 0.00 | 0.00 | 1017.0 | |
| 20260508142044 | 0 | 171 | 1.7 | 2.6 | 0.00 | 0.00 | 0.00 | 1017.0 | |
| 20260508141541 | 0 | 180 | 0.0 | 2.6 | 0.00 | 0.00 | 0.00 | 1017.0 | |
| 20260508141038 | 0 | 11 | 1.7 | 3.5 | 0.00 | 0.00 | 0.00 | 1017.1 | |
| 20260508140536 | 0 | 123 | 0.9 | 2.6 | 0.00 | 0.00 | 0.00 | 1017.1 | |
| 20260508140032 | 0 | 201 | 1.7 | 3.5 | 0.00 | 0.00 | 0.00 | 1016.9 | |
| 20260508135527 | 0 | 118 | 0.0 | 2.6 | 0.00 | 0.00 | 0.00 | 1017.0 | |
| 20260508135024 | 0 | 101 | 0.9 | 2.6 | 0.00 | 0.00 | 0.00 | 1016.8 | |
| 20260508134521 | 0 | 202 | 0.9 | 3.5 | 0.00 | 0.00 | 0.00 | 1016.9 | |
| 20260508134018 | 0 | 50 | 0.9 | 1.7 | 0.00 | 0.00 | 0.00 | 1017.4 | |
| 20260508133515 | 0 | 146 | 0.0 | 1.7 | 0.00 | 0.00 | 0.00 | 1017.4 | |
| 20260508133012 | 0 | 119 | 0.9 | 2.6 | 0.00 | 0.00 | 0.00 | 1017.3 | |
| 20260508132510 | 0 | 158 | 0.0 | 1.7 | 0.00 | 0.00 | 0.00 | 1017.4 | |
| 20260508132006 | 0 | 55 | 0.0 | 1.7 | 0.00 | 0.00 | 0.00 | 1017.5 | |
| 20260508131501 | 0 | 113 | 0.0 | 0.9 | 0.00 | 0.00 | 0.00 | 1017.5 | |
| 20260508130958 | 0 | 159 | 0.0 | 0.9 | 0.00 | 0.00 | 0.00 | 1017.2 | |
| 20260508130456 | 0 | 177 | 0.0 | 1.7 | 0.00 | 0.00 | 0.00 | 1017.2 | |
| 20260508125951 | 0 | 184 | 0.0 | 1.7 | 0.00 | 0.00 | 0.00 | 1017.2 | |
| 20260508125447 | 0 | 113 | 0.0 | 0.9 | 0.00 | 0.00 | 0.00 | 1017.4 | |
| 20260508124945 | 0 | 186 | 0.0 | 1.7 | 0.00 | 0.00 | 0.00 | 1017.3 | |
| 20260508124443 | 0 | 176 | 0.0 | 1.7 | 0.00 | 0.00 | 0.00 | 1017.4 | |
| 20260508123940 | 0 | 84 | 0.0 | 1.7 | 0.00 | 0.00 | 0.00 | 1017.5 | |
| 20260508123439 | 0 | 186 | 0.0 | 0.9 | 0.00 | 0.00 | 0.00 | 1017.4 | |
| 20260508122935 | 0 | 172 | 0.0 | 1.7 | 0.00 | 0.00 | 0.00 | 1017.5 | |
| 20260508122432 | 0 | 125 | 0.0 | 1.7 | 0.00 | 0.00 | 0.00 | 1017.5 | |
| 20260508121929 | 0 | 134 | 0.0 | 1.7 | 0.00 | 0.00 | 0.00 | 1017.4 | |
| 20260508121427 | 0 | 79 | 0.9 | 1.7 | 0.00 | 0.00 | 0.00 | 1019.2 | |
| 20260508120925 | 0 | 124 | 0.0 | 1.7 | 0.00 | 0.00 | 0.00 | 1017.6 | |
| 20260508120422 | 0 | 101 | 0.0 | 0.9 | 0.00 | 0.00 | 0.00 | 1017.6 | |
| 20260508115919 | 0 | 284 | 0.0 | 0.9 | 0.00 | 0.00 | 0.00 | 1017.5 | |
| 20260508115418 | 0 | 160 | 0.0 | 1.7 | 0.00 | 0.00 | 0.00 | 1017.9 | |
| 20260508114913 | 0 | 120 | 0.9 | 1.7 | 0.00 | 0.00 | 0.00 | 1018.1 | |
| 20260508114410 | 0 | 113 | 0.0 | 0.9 | 0.00 | 0.00 | 0.00 | 1018.2 | |
| 20260508113907 | 0 | 104 | 0.0 | 1.7 | 0.00 | 0.00 | 0.00 | 1018.1 | |
| 20260508113405 | 0 | 119 | 0.0 | 1.7 | 0.00 | 0.00 | 0.00 | 1018.2 | |
| 20260508112902 | 0 | 109 | 0.0 | 1.7 | 0.00 | 0.00 | 0.00 | 1018.1 | |
| 20260508112359 | 0 | 131 | 0.9 | 1.7 | 0.00 | 0.00 | 0.00 | 1018.0 | |
| 20260508111855 | 0 | 121 | 0.0 | 2.6 | 0.00 | 0.00 | 0.00 | 1018.1 | |
| 20260508111352 | 0 | 111 | 0.0 | 2.6 | 0.00 | 0.00 | 0.00 | 1017.9 | |
| 20260508110849 | 0 | 211 | 0.0 | 1.7 | 0.00 | 0.00 | 0.00 | 1017.9 | |
| 20260508110347 | 0 | 60 | 1.7 | 2.6 | 0.00 | 0.00 | 0.00 | 1017.8 | |
| 20260508105847 | 0 | 42 | 0.0 | 3.5 | 0.00 | 0.00 | 0.00 | 1017.6 | |
| 20260508105343 | 0 | 58 | 0.0 | 2.6 | 0.00 | 0.00 | 0.00 | 1017.4 | |
| 20260508104841 | 0 | 146 | 0.0 | 1.7 | 0.00 | 0.00 | 0.00 | 1017.4 | |
| 20260508104337 | 0 | 354 | 1.7 | 2.6 | 0.00 | 0.00 | 0.00 | 1017.5 | |
| 20260508103835 | 0 | 127 | 0.0 | 2.6 | 0.00 | 0.00 | 0.00 | 1017.8 | |
| 20260508103332 | 0 | 298 | 0.0 | 2.6 | 0.00 | 0.00 | 0.00 | 1018.0 | |
| 20260508102829 | 0 | 89 | 0.0 | 1.7 | 0.00 | 0.00 | 0.00 | 1018.0 | |
| 20260508102327 | 0 | 136 | 0.0 | 1.7 | 0.00 | 0.00 | 0.00 | 1018.1 | |
| 20260508101824 | 0 | 84 | 0.0 | 1.7 | 0.00 | 0.00 | 0.00 | 1018.1 | |
| 20260508101322 | 0 | 355 | 1.7 | 3.5 | 0.00 | 0.00 | 0.00 | 1018.4 | |
| 20260508100819 | 0 | 105 | 2.6 | 2.6 | 0.00 | 0.00 | 0.00 | 1018.5 | |
| 20260508100318 | 0 | 276 | 1.7 | 2.6 | 0.00 | 0.00 | 0.00 | 1018.5 | |
| 20260508095812 | 0 | 165 | 0.9 | 3.5 | 0.00 | 0.00 | 0.00 | 1018.4 | |
| 20260508095311 | 0 | 116 | 0.0 | 0.0 | 0.00 | 0.00 | 0.00 | 1018.2 | |
| 20260508094807 | 0 | 142 | 0.0 | 1.7 | 0.00 | 0.00 | 0.00 | 1018.2 | |
| 20260508094304 | 0 | 353 | 0.0 | 2.6 | 0.00 | 0.00 | 0.00 | 1018.5 | |
| 20260508093801 | 0 | 138 | 0.0 | 1.7 | 0.00 | 0.00 | 0.00 | 1018.5 | |
| 20260508093259 | 0 | 76 | 0.9 | 1.7 | 0.00 | 0.00 | 0.00 | 1018.5 | |
| 20260508092755 | 0 | 107 | 0.0 | 0.9 | 0.00 | 0.00 | 0.00 | 1018.5 | |
| 20260508092254 | 0 | 104 | 0.0 | 0.9 | 0.00 | 0.00 | 0.00 | 1018.4 | |
| 20260508091752 | 0 | 210 | 0.0 | 0.9 | 0.00 | 0.00 | 0.00 | 1018.1 | |
| 20260508091248 | 0 | 57 | 0.0 | 1.7 | 0.00 | 0.00 | 0.00 | 1018.1 | |
| 20260508090746 | 0 | 26 | 1.7 | 1.7 | 0.00 | 0.00 | 0.00 | 1018.0 | |
| 20260508090244 | 0 | 226 | 0.0 | 0.9 | 0.00 | 0.00 | 0.00 | 1018.1 | |
| 20260508085739 | 0 | 62 | 0.0 | 1.7 | 0.00 | 0.00 | 0.00 | 1017.8 | |
| 20260508085237 | 0 | 125 | 0.0 | 0.9 | 0.00 | 0.00 | 0.00 | 1017.8 | |
| 20260508084732 | 0 | 152 | 0.9 | 1.7 | 0.00 | 0.00 | 0.00 | 1017.5 | |
| 20260508084230 | 0 | 104 | 0.0 | 0.0 | 0.00 | 0.00 | 0.00 | 1017.5 | |
| 20260508083728 | 0 | 147 | 0.0 | 0.0 | 0.00 | 0.00 | 0.00 | 1018.0 | |
| 20260508083225 | 0 | 89 | 0.0 | 0.9 | 0.00 | 0.00 | 0.00 | 1017.9 | |
| 20260508082720 | 0 | 123 | 0.9 | 1.7 | 0.00 | 0.00 | 0.00 | 1018.0 | |
| 20260508082218 | 0 | 177 | 0.9 | 0.9 | 0.00 | 0.00 | 0.00 | 1017.6 | |
| 20260508081715 | 0 | 185 | 0.0 | 0.9 | 0.00 | 0.00 | 0.00 | 1017.9 | |
| 20260508081211 | 0 | 114 | 1.7 | 2.6 | 0.00 | 0.00 | 0.00 | 1017.8 | |
| 20260508080708 | 0 | 138 | 0.9 | 1.7 | 0.00 | 0.00 | 0.00 | 1017.5 | |
| 20260508080207 | 0 | 50 | 0.0 | 0.9 | 0.00 | 0.00 | 0.00 | 1017.5 | |
| 20260508075703 | 0 | 37 | 0.0 | 0.9 | 0.00 | 0.00 | 0.00 | 1017.4 | |
| 20260508075200 | 0 | 160 | 0.0 | 1.7 | 0.00 | 0.00 | 0.00 | 1017.3 | |
| 20260508074657 | 0 | 131 | 0.0 | 1.7 | 0.00 | 0.00 | 0.00 | 1017.2 | |
| 20260508074154 | 0 | 135 | 0.0 | 1.7 | 0.00 | 0.00 | 0.00 | 1017.4 | |
| 20260508073651 | 0 | 75 | 0.0 | 0.9 | 0.00 | 0.00 | 0.00 | 1017.3 | |
| 20260508073149 | 0 | 99 | 0.9 | 1.7 | 0.00 | 0.00 | 0.00 | 1017.8 | |
| 20260508072644 | 0 | 133 | 0.0 | 1.7 | 0.00 | 0.00 | 0.00 | 1017.9 | |
| 20260508072142 | 0 | 73 | 0.9 | 1.7 | 0.00 | 0.00 | 0.00 | 1018.0 | |
| 20260508071640 | 0 | 96 | 0.9 | 0.9 | 0.00 | 0.00 | 0.00 | 1018.1 | |
| 20260508071138 | 0 | 131 | 0.9 | 1.7 | 0.00 | 0.00 | 0.00 | 1017.9 | |
| 20260508070635 | 0 | 103 | 0.0 | 1.7 | 0.00 | 0.00 | 0.00 | 1018.1 | |
| 20260508070133 | 0 | 122 | 0.0 | 1.7 | 0.00 | 0.00 | 0.00 | 1018.2 | |
| 20260508065630 | 0 | 123 | 0.0 | 0.9 | 0.00 | 0.00 | 0.00 | 1018.3 | |
| 20260508065128 | 0 | 117 | 0.0 | 0.9 | 0.00 | 0.00 | 0.00 | 1018.3 | |
| 20260508064626 | 0 | 154 | 0.0 | 0.9 | 0.00 | 0.00 | 0.00 | 1018.3 | |
| 20260508064124 | 0 | 104 | 0.0 | 1.7 | 0.00 | 0.00 | 0.00 | 1018.6 | |
| 20260508063621 | 0 | 129 | 0.0 | 0.9 | 0.00 | 0.00 | 0.00 | 1018.6 | |
| 20260508063119 | 0 | 89 | 0.0 | 1.7 | 0.00 | 0.00 | 0.00 | 1018.7 | |
| 20260508062616 | 0 | 139 | 0.0 | 1.7 | 0.00 | 0.00 | 0.00 | 1018.6 | |
| 20260508062112 | 0 | 117 | 0.0 | 1.7 | 0.00 | 0.00 | 0.00 | 1018.6 | |
| 20260508061610 | 0 | 131 | 0.9 | 1.7 | 0.00 | 0.00 | 0.00 | 1018.7 | |
| 20260508061108 | 0 | 155 | 0.0 | 0.9 | 0.00 | 0.00 | 0.00 | 1018.9 | |
| 20260508060603 | 0 | 230 | 0.0 | 1.7 | 0.00 | 0.00 | 0.00 | 1018.7 | |
| 20260508055556 | 0 | 62 | 0.0 | 0.9 | 0.00 | 0.00 | 0.00 | 1018.5 | |
| 20260508055054 | 0 | 106 | 0.0 | 1.7 | 0.00 | 0.00 | 0.00 | 1018.2 | |
| 20260508054550 | 0 | 146 | 0.9 | 0.9 | 0.00 | 0.00 | 0.00 | 1018.3 | |
| 20260508054047 | 0 | 122 | 0.9 | 0.9 | 0.00 | 0.00 | 0.00 | 1018.4 | |
| 20260508053544 | 0 | 135 | 0.0 | 0.9 | 0.00 | 0.00 | 0.00 | 1018.6 | |
| 20260508053042 | 0 | 117 | 0.0 | 0.0 | 0.00 | 0.00 | 0.00 | 1018.5 | |
| 20260508052539 | 0 | 110 | 0.0 | 0.9 | 0.00 | 0.00 | 0.00 | 1018.5 | |
| 20260508052036 | 0 | 240 | 0.0 | 0.9 | 0.00 | 0.00 | 0.00 | 1018.7 | |
| 20260508051532 | 0 | 113 | 0.0 | 0.9 | 0.00 | 0.00 | 0.00 | 1018.4 | |
| 20260508051027 | 0 | 111 | 0.9 | 1.7 | 0.00 | 0.00 | 0.00 | 1018.5 | |
| 20260508050524 | 0 | 119 | 0.0 | 0.9 | 0.00 | 0.00 | 0.00 | 1018.8 | |
| 20260508050021 | 0 | 75 | 0.0 | 1.7 | 0.00 | 0.00 | 0.00 | 1018.6 | |
| 20260508045518 | 0 | 124 | 0.9 | 1.7 | 0.00 | 0.00 | 0.00 | 1018.6 | |
| 20260508045015 | 0 | 136 | 0.9 | 0.9 | 0.00 | 0.00 | 0.00 | 1018.8 | |
| 20260508044513 | 0 | 164 | 0.0 | 0.9 | 0.00 | 0.00 | 0.00 | 1019.3 | |
| 20260508044008 | 0 | 174 | 0.0 | 0.9 | 0.00 | 0.00 | 0.00 | 1019.1 | |
| 20260508043505 | 0 | 118 | 0.0 | 1.7 | 0.00 | 0.00 | 0.00 | 1018.8 | |
| 20260508043002 | 0 | 172 | 0.0 | 1.7 | 0.00 | 0.00 | 0.00 | 1018.9 | |
| 20260508042459 | 0 | 68 | 0.0 | 0.9 | 0.00 | 0.00 | 0.00 | 1018.7 | |
| 20260508041956 | 0 | 88 | 0.9 | 1.7 | 0.00 | 0.00 | 0.00 | 1018.5 | |
| 20260508041452 | 0 | 142 | 1.7 | 1.7 | 0.00 | 0.00 | 0.00 | 1018.7 | |
| 20260508040949 | 0 | 129 | 0.0 | 1.7 | 0.00 | 0.00 | 0.00 | 1019.3 | |
| 20260508040447 | 0 | 55 | 0.0 | 0.9 | 0.00 | 0.00 | 0.00 | 1019.0 | |
| 20260508035944 | 0 | 75 | 0.0 | 0.9 | 0.00 | 0.00 | 0.00 | 1019.0 | |
| 20260508035441 | 0 | 108 | 0.9 | 2.6 | 0.00 | 0.00 | 0.00 | 1019.0 | |
| 20260508034938 | 0 | 134 | 0.0 | 1.7 | 0.00 | 0.00 | 0.00 | 1019.4 | |
| 20260508034435 | 0 | 129 | 0.0 | 0.9 | 0.00 | 0.00 | 0.00 | 1019.4 | |
| 20260508033931 | 0 | 118 | 0.0 | 1.7 | 0.00 | 0.00 | 0.00 | 1019.4 | |
| 20260508033430 | 0 | 322 | 0.0 | 0.9 | 0.00 | 0.00 | 0.00 | 1019.5 | |
| 20260508032927 | 0 | 202 | 0.0 | 1.7 | 0.00 | 0.00 | 0.00 | 1019.2 | |
| 20260508032424 | 0 | 179 | 0.9 | 2.6 | 0.00 | 0.00 | 0.00 | 1019.2 | |
| 20260508031921 | 0 | 128 | 0.9 | 1.7 | 0.00 | 0.00 | 0.00 | 1019.4 | |
| 20260508031418 | 0 | 141 | 0.9 | 1.7 | 0.00 | 0.00 | 0.00 | 1019.5 | |
| 20260508030914 | 0 | 242 | 0.0 | 0.0 | 0.00 | 0.00 | 0.00 | 1019.4 | |
| 20260508030411 | 0 | 117 | 0.0 | 0.0 | 0.00 | 0.00 | 0.00 | 1018.7 | |
| 20260508025908 | 0 | 84 | 0.9 | 0.9 | 0.00 | 0.00 | 0.00 | 1018.5 | |
| 20260508025405 | 0 | 135 | 0.9 | 2.6 | 0.00 | 0.00 | 0.00 | 1018.1 | |
| 20260508024902 | 0 | 124 | 0.0 | 1.7 | 0.00 | 0.00 | 0.00 | 1018.3 | |
| 20260508024358 | 0 | 117 | 0.0 | 0.9 | 0.00 | 0.00 | 0.00 | 1018.4 | |
| 20260508023855 | 0 | 189 | 0.0 | 1.7 | 0.00 | 0.00 | 0.00 | 1018.2 | |
| 20260508023352 | 0 | 174 | 0.9 | 0.9 | 0.00 | 0.00 | 0.00 | 1017.8 | |
| 20260508022849 | 0 | 228 | 0.0 | 1.7 | 0.00 | 0.00 | 0.00 | 1017.5 | |
| 20260508022344 | 0 | 109 | 0.0 | 0.9 | 0.00 | 0.00 | 0.00 | 1017.5 | |
| 20260508021841 | 0 | 53 | 0.0 | 0.9 | 0.00 | 0.00 | 0.00 | 1017.3 | |
| 20260508021338 | 0 | 165 | 1.7 | 1.7 | 0.00 | 0.00 | 0.00 | 1017.4 | |
| 20260508020833 | 0 | 142 | 0.9 | 1.7 | 0.00 | 0.00 | 0.00 | 1017.2 | |
| 20260508020332 | 0 | 110 | 0.0 | 1.7 | 0.00 | 0.00 | 0.00 | 1017.3 | |
| 20260508015829 | 0 | 104 | 0.0 | 0.9 | 0.00 | 0.00 | 0.00 | 1017.5 | |
| 20260508015326 | 0 | 147 | 1.7 | 1.7 | 0.00 | 0.00 | 0.00 | 1017.1 | |
| 20260508014822 | 0 | 177 | 0.9 | 1.7 | 0.00 | 0.00 | 0.00 | 1017.3 | |
| 20260508014320 | 0 | 179 | 0.0 | 1.7 | 0.00 | 0.00 | 0.00 | 1017.5 | |
| 20260508013815 | 0 | 51 | 0.0 | 1.7 | 0.00 | 0.00 | 0.00 | 1017.6 | |
| 20260508013312 | 0 | 180 | 0.9 | 0.9 | 0.00 | 0.00 | 0.00 | 1017.6 | |
| 20260508012809 | 0 | 52 | 0.0 | 0.9 | 0.00 | 0.00 | 0.00 | 1017.3 | |
| 20260508012307 | 0 | 154 | 0.0 | 1.7 | 0.00 | 0.00 | 0.00 | 1017.3 | |
| 20260508011804 | 0 | 135 | 0.0 | 1.7 | 0.00 | 0.00 | 0.00 | 1017.3 | |
| 20260508011301 | 0 | 130 | 0.9 | 1.7 | 0.00 | 0.00 | 0.00 | 1017.1 | |
| 20260508010758 | 0 | 142 | 0.9 | 0.9 | 0.00 | 0.00 | 0.00 | 1017.2 | |
| 20260508010256 | 0 | 126 | 0.9 | 1.7 | 0.00 | 0.00 | 0.00 | 1017.9 | |
| 20260508005753 | 0 | 257 | 0.0 | 0.9 | 0.00 | 0.00 | 0.00 | 1017.9 | |
| 20260508005249 | 0 | 147 | 1.7 | 2.6 | 0.00 | 0.00 | 0.00 | 1017.9 | |
| 20260508004745 | 0 | 142 | 0.0 | 0.9 | 0.00 | 0.00 | 0.00 | 1018.4 | |
| 20260508004242 | 0 | 81 | 0.9 | 1.7 | 0.00 | 0.00 | 0.00 | 1018.1 | |
| 20260508003738 | 0 | 13 | 0.0 | 0.9 | 0.00 | 0.00 | 0.00 | 1018.0 | |
| 20260508003236 | 0 | 147 | 0.9 | 2.6 | 0.00 | 0.00 | 0.00 | 1018.0 | |
| 20260508002732 | 0 | 64 | 0.0 | 1.7 | 0.00 | 0.00 | 0.00 | 1018.0 |